CW0454 Weather Reports


time (UTC)temp
F
wind
direction
speed
knots
gust
knots
rain 1hr
in
rain 24hr
in
rain mn
in
humidity
%
barometer
mb
20260504214400 74 127 5.2 13.0 0.00 0.00 0.00 44 1009.0
20260504213400 74 119 7.0 14.8 0.00 0.00 0.00 44 1009.0
20260504212421 75 103 4.3 12.2 0.00 0.00 0.00 44 1009.1
20260504211400 75 102 4.3 10.4 0.00 0.00 0.00 42 1009.1
20260504210400 75 66 1.7 10.4 0.00 0.00 0.00 43 1009.0
20260504205400 75 87 3.5 9.6 0.00 0.00 0.00 43 1009.2
20260504204400 75 130 3.5 10.4 0.00 0.00 0.00 43 1009.2
20260504203400 75 107 6.1 12.2 0.00 0.00 0.00 42 1009.4
20260504201400 76 71 3.5 10.4 0.00 0.00 0.00 42 1009.2
20260504200400 76 123 2.6 11.3 0.00 0.00 0.00 42 1009.4
20260504195401 76 106 3.5 9.6 0.00 0.00 0.00 42 1009.5
20260504194400 76 113 2.6 9.6 0.00 0.00 0.00 42 1009.8
20260504193401 75 76 2.6 12.2 0.00 0.00 0.00 42 1009.9
20260504192401 75 98 1.7 11.3 0.00 0.00 0.00 43 1010.2
20260504191400 75 55 4.3 10.4 0.00 0.00 0.00 42 1010.2
20260504190401 75 88 3.5 13.0 0.00 0.00 0.00 43 1010.4
20260504185401 74 75 3.5 10.4 0.00 0.00 0.00 43 1010.5
20260504184401 74 77 4.3 10.4 0.00 0.00 0.00 42 1010.7
20260504183401 74 127 3.5 13.9 0.00 0.00 0.00 42 1010.9
20260504182400 74 127 6.1 11.3 0.00 0.00 0.00 42 1010.9
20260504181401 74 38 1.7 9.6 0.00 0.00 0.00 45 1011.1
20260504180400 74 114 2.6 9.6 0.00 0.00 0.00 42 1011.1
20260504175401 74 144 4.3 10.4 0.00 0.00 0.00 41 1011.3
20260504174400 74 57 2.6 7.8 0.00 0.00 0.00 41 1011.5
20260504173401 74 139 1.7 9.6 0.00 0.00 0.00 41 1011.7
20260504172401 74 148 2.6 8.7 0.00 0.00 0.00 39 1011.7
20260504171400 74 101 2.6 6.1 0.00 0.00 0.00 39 1011.8
20260504170401 73 250 4.3 7.8 0.00 0.00 0.00 37 1011.8
20260504160402 71 107 1.7 7.8 0.00 0.00 0.00 41 1012.7
20260504150401 66 237 1.7 6.1 0.00 0.00 0.00 48 1013.3
20260504140402 62 138 0.9 7.0 0.00 0.00 0.00 54 1013.5
20260504130402 58 137 0.9 6.1 0.00 0.00 0.00 59 1013.8
20260504110402 51 130 1.7 5.2 0.00 0.00 0.00 72 1014.4
20260504100402 48 118 1.7 5.2 0.00 0.00 0.00 79 1014.4
20260504081402 49 128 0.0 1.7 0.00 0.00 0.00 75 1014.7
20260504080403 49 128 0.0 3.5 0.00 0.00 0.00 74 1014.8
20260504050359 46 185 0.0 3.5 0.00 0.00 0.00 74 1014.8
20260504045420 46 116 0.9 6.1 0.00 0.00 0.00 75 1014.9
20260504044359 45 122 1.7 5.2 0.00 0.00 0.00 76 1015.1
20260504043359 45 138 0.0 3.5 0.00 0.00 0.00 76 1015.0
20260504042359 45 163 0.9 3.5 0.00 0.00 0.00 77 1015.0
20260504041420 45 124 0.0 2.6 0.00 0.00 0.00 78 1015.0
20260504040358 45 125 0.0 1.7 0.00 0.00 0.00 78 1014.9
20260504035359 45 125 0.0 2.6 0.00 0.00 0.00 77 1014.9
20260504034359 45 126 0.0 2.6 0.00 0.00 0.00 76 1014.7
20260504033420 45 165 0.0 3.5 0.00 0.00 0.00 76 1014.6
20260504032359 45 212 0.9 1.7 0.00 0.00 0.00 75 1014.4
20260504031359 45 213 0.0 0.9 0.00 0.00 0.00 75 1014.4
20260504030420 45 212 0.0 1.7 0.00 0.00 0.00 74 1014.4
20260504025359 45 212 0.0 0.9 0.00 0.00 0.00 75 1014.4
20260504024359 45 212 0.9 1.7 0.00 0.00 0.00 73 1014.4
20260504023359 46 212 0.0 0.9 0.00 0.00 0.00 72 1014.3
20260504022359 46 213 0.0 1.7 0.00 0.00 0.00 72 1014.4
20260504021359 46 212 0.0 1.7 0.00 0.00 0.00 70 1014.2
20260504020421 47 212 0.0 0.9 0.00 0.00 0.00 70 1014.1
20260504015400 47 212 0.9 1.7 0.00 0.00 0.00 69 1014.1
20260504014359 47 212 0.0 1.7 0.00 0.00 0.00 67 1014.1
20260504013400 48 212 0.9 1.7 0.00 0.00 0.00 66 1014.1
20260504012359 48 213 0.0 0.9 0.00 0.00 0.00 66 1014.1
20260504011420 49 212 0.0 1.7 0.00 0.00 0.00 62 1014.0
20260504010400 50 212 0.0 1.7 0.00 0.00 0.00 62 1014.0
20260504005359 50 212 0.0 1.7 0.00 0.00 0.00 60 1014.0
20260504004421 51 212 0.9 0.9 0.00 0.00 0.00 56 1013.9
20260504003359 52 212 0.9 1.7 0.00 0.00 0.00 53 1013.7
20260504001359 54 213 0.0 0.9 0.00 0.00 0.00 48 1013.5
20260504000401 56 213 0.0 0.0 0.00 0.00 0.00 46 1013.4
20260503235420 57 213 0.0 0.0 0.00 0.00 0.00 43 1013.2
20260503234421 58 213 0.0 3.5 0.00 0.00 0.00 42 1013.1
20260503233400 59 212 0.9 3.5 0.00 0.00 0.00 40 1013.1
20260503232400 60 250 0.9 3.5 0.00 0.00 0.00 39 1013.1
20260503231400 61 256 2.6 9.6 0.00 0.00 0.00 36 1013.0
20260503230400 61 273 1.7 8.7 0.00 0.00 0.00 36 1013.0
20260503225359 61 245 2.6 13.0 0.00 0.00 0.00 35 1013.0
20260503224400 62 225 3.5 7.8 0.00 0.00 0.00 34 1013.1
20260503223400 62 250 4.3 10.4 0.00 0.00 0.00 35 1013.1
20260503222400 62 313 1.7 10.4 0.00 0.00 0.00 35 1013.0
20260503221400 62 260 3.5 9.6 0.00 0.00 0.00 34 1013.0
20260503220442 63 285 3.5 12.2 0.00 0.00 0.00 34 1013.1
20260503215400 64 263 6.1 13.0 0.00 0.00 0.00 32 1013.1